ONEWEB-0219, 48223

Orbit data source: Space-Track

ONEWEB-0219, 48223 is a payload satellite owned by One Web (NAA) (UK) in LEO that was launched on Sun, 25 Apr 2021 UTC via a SOYUZ-2-1B launch vehicle from the Vostochny Cosmodrome (VOSTO). Payload-class satellites include a variety of spacecraft equipped with specific instruments for various scientific and technological missions. These include communications satellites like Starlink; space stations such as the ISS; scientific satellites like the Hubble; Earth observation satellites from companies like Planet Labs, Umbra, and HawkEye 360; GPS; miniature CubeSats for education and research; and military/defense satellites.

Loading next visibility...
Identifier
48223, 2021-031P
Orbit
LEO
Country
Flag of UKUK
Related business
Manufacturer
One Web
Mission
Operational Commercial Communications
Bus & Motor
ARROW, Unknown motor
Mass
148 kg wet, ~140 kg dry
Launch date (UTC)
2021-04-25 (5 years ago)
Launch vehicle
SOYUZ-2-1B
Launch site
Vostochny Cosmodrome (VOSTO)
Object type
Payload
Rocket body
Debris
Shape & HBR
Trap Box + 2 Pan, 6.7 m
Radar Cross Section
3.464 m², Large (>1 m²)

Expand to show TLE details & history
Last TLE update: 1 day ago

TLE from 1 day ago
0 ONEWEB-0219
1 48223U 21031P   25305.55509101  .00000057  00000-0  11937-3 0  9993
2 48223  87.9012 335.0484 0001890  86.4784 273.6562 13.14503998218476
Epoch: 2025-11-01T13:19Z
TLE epoch observation values (Epoch: 2025-11-01T13:19:19.863Z)
Latitude
Longitude
94.13214°
Altitude
1,208.588 km
Speed
7.25 km/s
True Right ascension
22h 20m 11s
True Declination
0° 00' 00"
Sunlit
Object was in daylight at epoch
Visualization orbit readout
Latitude
Unknown
Longitude
Unknown
Altitude
Unknown
Speed
Unknown
Apparent Right ascension
Unknown
Apparent Declination
Unknown
Sunlit
N/A
Visualization observer readout
Local Sidereal Time
09:10:29
Azimuth
Unknown
Elevation
Unknown
Doppler factor
Unknown
Orbital elements
Apogee altitude
1,204.332 km
Perigee altitude
1,201.466 km
Semi-major axis
7,581.036 km
Eccentricity
0.00019
Inclination
87.9012°
RAAN
335.0484°
Arg. of periapsis
86.4784°
True anomaly
273.63459°
Mean anomaly
273.6562°
Eccentric anomaly
273.64539°
Mean motion
3.28814 °/min
Orbital period
109.48 mins
BSTAR
0.00011937
Loading maneuver chart data...
Computing Atmospheric mass density...
Loading historical data...
Loading historical data...
Loading historical data...
Loading historical data...
Loading historical data...
Loading historical data...
Loading historical data...

Documentation

Showing up to 5 results
|